SWR9TP LSGG-LSZH

Flight info

Callsign SWR9TP
Flight time 0h 37m
Altitude 18000
Route SOSAL N871 BERSU
Aircraft A320/M-SDE2E3FGIRWXY/L

Departure

Time 2026-05-07 18:07
Airport Geneva International Airport (LSGG)

Arrival

Time 2026-05-07 18:45
Airport Zürich Airport (LSZH)
Time Latitude Longitude Altitude Speed Heading
2026-05-07 17:45 46.23059 6.10612 1392 ft 0 kts 133°
2026-05-07 17:58 46.23062 6.10607 1391 ft 3 kts 135°
2026-05-07 17:58 46.23083 6.10584 1386 ft 4 kts 160°
2026-05-07 17:58 46.23107 6.10580 1389 ft 4 kts 200°
2026-05-07 17:58 46.23120 6.10590 1385 ft 0 kts 226°
2026-05-07 18:02 46.23089 6.10545 1390 ft 14 kts 225°
2026-05-07 18:02 46.23019 6.10443 1389 ft 14 kts 225°
2026-05-07 18:02 46.22959 6.10353 1391 ft 11 kts 230°
2026-05-07 18:03 46.22982 6.10266 1387 ft 10 kts 314°
2026-05-07 18:03 46.23025 6.10203 1387 ft 7 kts 315°
2026-05-07 18:03 46.23058 6.10138 1387 ft 12 kts 272°
2026-05-07 18:03 46.22978 6.10012 1387 ft 18 kts 225°
2026-05-07 18:04 46.22901 6.09899 1398 ft 14 kts 226°
2026-05-07 18:04 46.22841 6.09813 1396 ft 11 kts 226°
2026-05-07 18:04 46.22780 6.09721 1396 ft 12 kts 225°
2026-05-07 18:04 46.22716 6.09629 1404 ft 18 kts 225°
2026-05-07 18:05 46.22619 6.09484 1401 ft 18 kts 224°
2026-05-07 18:05 46.22558 6.09355 1408 ft 14 kts 253°
2026-05-07 18:05 46.22563 6.09168 1404 ft 21 kts 295°
2026-05-07 18:05 46.22646 6.09196 1404 ft 12 kts 44°
2026-05-07 18:06 46.22728 6.09318 1406 ft 37 kts 45°
2026-05-07 18:06 46.23083 6.09837 1388 ft 106 kts 45°
2026-05-07 18:06 46.23483 6.10423 1386 ft 142 kts 45°
2026-05-07 18:07 46.23788 6.10869 1381 ft 162 kts 45°
2026-05-07 18:07 46.24600 6.12069 1909 ft 166 kts 46°
2026-05-07 18:07 46.25396 6.13272 2650 ft 165 kts 45°
2026-05-07 18:07 46.26186 6.14461 3355 ft 163 kts 45°
2026-05-07 18:08 46.26982 6.15623 3953 ft 163 kts 44°
2026-05-07 18:08 46.27793 6.16770 4537 ft 163 kts 44°
2026-05-07 18:08 46.28645 6.18003 4832 ft 184 kts 45°
2026-05-07 18:08 46.29595 6.19395 5108 ft 204 kts 45°
2026-05-07 18:09 46.30652 6.20958 5338 ft 231 kts 46°
2026-05-07 18:09 46.31837 6.22722 5710 ft 255 kts 46°
2026-05-07 18:09 46.33124 6.24624 6286 ft 271 kts 46°
2026-05-07 18:09 46.34469 6.26602 7002 ft 280 kts 46°
2026-05-07 18:10 46.35827 6.28615 7763 ft 286 kts 48°
2026-05-07 18:10 46.36954 6.31003 8548 ft 290 kts 66°
2026-05-07 18:10 46.37606 6.33780 9339 ft 294 kts 77°
2026-05-07 18:10 46.38151 6.36673 10109 ft 300 kts 76°
2026-05-07 18:11 46.38734 6.39674 10459 ft 321 kts 76°
2026-05-07 18:11 46.39160 6.41833 10624 ft 337 kts 75°
2026-05-07 18:11 46.40053 6.46286 11243 ft 354 kts 75°
2026-05-07 18:11 46.40752 6.49743 11946 ft 359 kts 74°
2026-05-07 18:12 46.41457 6.53234 12665 ft 364 kts 74°
2026-05-07 18:12 46.42168 6.56780 13380 ft 368 kts 74°
2026-05-07 18:12 46.42887 6.60371 14052 ft 373 kts 74°
2026-05-07 18:12 46.43612 6.63997 14670 ft 376 kts 73°
2026-05-07 18:13 46.44571 6.67543 15267 ft 380 kts 62°
2026-05-07 18:13 46.45974 6.70797 15896 ft 382 kts 51°
2026-05-07 18:13 46.47663 6.73811 16523 ft 386 kts 49°
2026-05-07 18:13 46.49368 6.76838 17140 ft 389 kts 49°
2026-05-07 18:14 46.51085 6.79899 17764 ft 393 kts 49°
2026-05-07 18:14 46.52812 6.82998 17984 ft 395 kts 49°
2026-05-07 18:14 46.54529 6.86092 18029 ft 402 kts 50°
2026-05-07 18:14 46.56294 6.89277 18031 ft 404 kts 50°
2026-05-07 18:15 46.58056 6.92455 18018 ft 405 kts 49°
2026-05-07 18:15 46.59824 6.95640 18021 ft 405 kts 49°
2026-05-07 18:15 46.61592 6.98826 18020 ft 405 kts 49°
2026-05-07 18:15 46.63363 7.02019 18019 ft 405 kts 49°
2026-05-07 18:16 46.65126 7.05201 18031 ft 405 kts 49°
2026-05-07 18:16 46.66893 7.08392 18030 ft 405 kts 49°
2026-05-07 18:16 46.68068 7.10514 18021 ft 405 kts 49°
2026-05-07 18:16 46.69834 7.13703 18023 ft 404 kts 49°
2026-05-07 18:17 46.71595 7.16894 18025 ft 404 kts 50°
2026-05-07 18:17 46.73359 7.20097 18016 ft 404 kts 50°
2026-05-07 18:17 46.75122 7.23297 18028 ft 404 kts 50°
2026-05-07 18:17 46.76882 7.26491 18029 ft 404 kts 50°
2026-05-07 18:18 46.78643 7.29690 18017 ft 404 kts 50°
2026-05-07 18:18 46.80403 7.32891 18009 ft 404 kts 50°
2026-05-07 18:18 46.82158 7.36094 18005 ft 404 kts 50°
2026-05-07 18:18 46.83908 7.39297 18001 ft 404 kts 50°
2026-05-07 18:19 46.85658 7.42502 18000 ft 404 kts 50°
2026-05-07 18:19 46.87411 7.45722 18007 ft 404 kts 50°
2026-05-07 18:19 46.89157 7.48938 18005 ft 404 kts 51°
2026-05-07 18:19 46.90902 7.52153 18029 ft 404 kts 50°
2026-05-07 18:20 46.92655 7.55376 18027 ft 404 kts 50°
2026-05-07 18:20 46.94379 7.58550 18029 ft 404 kts 51°
2026-05-07 18:20 46.96127 7.61783 18022 ft 404 kts 51°
2026-05-07 18:20 46.97873 7.65015 18024 ft 404 kts 51°
2026-05-07 18:21 46.99618 7.68246 18024 ft 404 kts 51°
2026-05-07 18:21 47.01362 7.71483 18036 ft 404 kts 51°
2026-05-07 18:21 47.03104 7.74716 18026 ft 404 kts 51°
2026-05-07 18:21 47.04840 7.77937 17891 ft 400 kts 51°
2026-05-07 18:22 47.06554 7.81112 17487 ft 393 kts 51°
2026-05-07 18:22 47.07672 7.83185 17223 ft 389 kts 51°
2026-05-07 18:22 47.09896 7.87313 16697 ft 382 kts 51°
2026-05-07 18:22 47.11530 7.90355 16318 ft 377 kts 51°
2026-05-07 18:23 47.13106 7.93390 15944 ft 372 kts 56°
2026-05-07 18:23 47.14379 7.96673 15559 ft 368 kts 64°
2026-05-07 18:23 47.15461 8.00078 15188 ft 366 kts 65°
2026-05-07 18:23 47.16535 8.03452 14819 ft 363 kts 65°
2026-05-07 18:24 47.17603 8.06797 14462 ft 361 kts 65°
2026-05-07 18:24 47.18671 8.10136 14099 ft 359 kts 65°
2026-05-07 18:24 47.19729 8.13435 13731 ft 355 kts 63°
2026-05-07 18:24 47.21079 8.16378 13333 ft 350 kts 46°
2026-05-07 18:25 47.22952 8.18598 12931 ft 344 kts 28°
2026-05-07 18:25 47.25141 8.19897 12532 ft 337 kts 11°
2026-05-07 18:25 47.27447 8.20209 12155 ft 329 kts 353°
2026-05-07 18:25 47.28954 8.19873 11990 ft 321 kts 342°
2026-05-07 18:26 47.29959 8.19341 12202 ft 276 kts 324°
2026-05-07 18:26 47.31310 8.17886 14165 ft 240 kts 320°
2026-05-07 18:26 47.32873 8.16407 13959 ft 296 kts 329°
2026-05-07 18:27 47.34782 8.15088 13658 ft 303 kts 334°
2026-05-07 18:27 47.36716 8.13904 13377 ft 299 kts 335°
2026-05-07 18:27 47.38621 8.12723 13105 ft 294 kts 334°
2026-05-07 18:27 47.40454 8.11518 12851 ft 289 kts 332°
2026-05-07 18:28 47.42261 8.10259 12586 ft 285 kts 331°
2026-05-07 18:28 47.44028 8.08976 12328 ft 281 kts 330°
2026-05-07 18:28 47.45768 8.07684 12070 ft 278 kts 330°
2026-05-07 18:28 47.47480 8.06398 11811 ft 275 kts 330°
2026-05-07 18:29 47.49185 8.05119 11558 ft 274 kts 332°
2026-05-07 18:29 47.50989 8.04196 11303 ft 276 kts 345°
2026-05-07 18:29 47.52900 8.03895 11060 ft 277 kts 358°
2026-05-07 18:29 47.54818 8.04231 10806 ft 279 kts 11°
2026-05-07 18:30 47.56655 8.05197 10564 ft 281 kts 25°
2026-05-07 18:30 47.58300 8.06753 10322 ft 282 kts 38°
2026-05-07 18:30 47.59674 8.08825 10077 ft 282 kts 52°
2026-05-07 18:30 47.60691 8.11260 9836 ft 282 kts 65°
2026-05-07 18:31 47.61327 8.14024 9562 ft 279 kts 79°
2026-05-07 18:31 47.61526 8.16825 9301 ft 277 kts 92°
2026-05-07 18:31 47.61301 8.19645 9037 ft 274 kts 105°
2026-05-07 18:31 47.60677 8.22283 8775 ft 270 kts 118°
2026-05-07 18:32 47.59699 8.24627 8521 ft 266 kts 131°
2026-05-07 18:32 47.58427 8.26588 8256 ft 262 kts 143°
2026-05-07 18:32 47.56924 8.28094 8000 ft 259 kts 155°
2026-05-07 18:32 47.55300 8.29224 7747 ft 258 kts 158°
2026-05-07 18:33 47.53671 8.30344 7491 ft 257 kts 157°
2026-05-07 18:33 47.52055 8.31464 7236 ft 256 kts 157°
2026-05-07 18:33 47.50450 8.32581 7064 ft 255 kts 157°
2026-05-07 18:33 47.48846 8.33695 7016 ft 253 kts 156°
2026-05-07 18:34 47.47255 8.34802 7012 ft 252 kts 156°
2026-05-07 18:34 47.45670 8.35905 7017 ft 253 kts 156°
2026-05-07 18:34 47.44095 8.37001 7021 ft 253 kts 156°
2026-05-07 18:34 47.42497 8.38109 7017 ft 253 kts 156°
2026-05-07 18:35 47.40899 8.39214 7012 ft 254 kts 156°
2026-05-07 18:35 47.39298 8.40320 6998 ft 255 kts 155°
2026-05-07 18:35 47.37689 8.41432 6743 ft 253 kts 155°
2026-05-07 18:35 47.36092 8.42527 6492 ft 252 kts 155°
2026-05-07 18:36 47.34501 8.43608 6239 ft 251 kts 155°
2026-05-07 18:36 47.32916 8.44672 5973 ft 250 kts 155°
2026-05-07 18:36 47.31332 8.45728 5715 ft 249 kts 155°
2026-05-07 18:36 47.29780 8.46757 5452 ft 244 kts 155°
2026-05-07 18:37 47.28251 8.47762 5208 ft 238 kts 155°
2026-05-07 18:37 47.26759 8.48730 5048 ft 229 kts 155°
2026-05-07 18:37 47.25306 8.49657 5005 ft 226 kts 155°
2026-05-07 18:37 47.23867 8.50568 5011 ft 225 kts 154°
2026-05-07 18:38 47.22627 8.51918 5013 ft 223 kts 124°
2026-05-07 18:38 47.22102 8.54025 5014 ft 221 kts 91°
2026-05-07 18:38 47.22425 8.56214 5018 ft 222 kts 68°
2026-05-07 18:38 47.23069 8.58277 5010 ft 219 kts 64°
2026-05-07 18:39 47.23722 8.60218 5004 ft 204 kts 64°
2026-05-07 18:39 47.24375 8.62011 5032 ft 196 kts 53°
2026-05-07 18:39 47.25446 8.63123 5010 ft 193 kts 20°
2026-05-07 18:39 47.26731 8.63664 5008 ft 192 kts 14°
2026-05-07 18:40 47.28036 8.64122 5007 ft 192 kts 14°
2026-05-07 18:40 47.29341 8.64582 5010 ft 192 kts 14°
2026-05-07 18:40 47.30674 8.64854 4785 ft 195 kts 356°
2026-05-07 18:40 47.31962 8.64312 4499 ft 193 kts 335°
2026-05-07 18:41 47.33165 8.63485 4212 ft 190 kts 336°
2026-05-07 18:41 47.34356 8.62669 3938 ft 188 kts 335°
2026-05-07 18:41 47.35539 8.61858 3672 ft 186 kts 335°
2026-05-07 18:41 47.36715 8.61053 3409 ft 186 kts 335°
2026-05-07 18:42 47.37835 8.60286 3190 ft 166 kts 335°
2026-05-07 18:42 47.38832 8.59602 2909 ft 155 kts 335°
2026-05-07 18:42 47.39779 8.58953 2643 ft 146 kts 334°
2026-05-07 18:42 47.40682 8.58332 2397 ft 141 kts 335°
2026-05-07 18:43 47.41555 8.57738 2202 ft 139 kts 335°
2026-05-07 18:43 47.42433 8.57123 2010 ft 140 kts 335°
2026-05-07 18:43 47.43312 8.56526 1777 ft 137 kts 335°
2026-05-07 18:43 47.44182 8.55929 1624 ft 138 kts 335°
2026-05-07 18:44 47.45051 8.55329 1419 ft 136 kts 335°
2026-05-07 18:44 47.45821 8.54801 1387 ft 105 kts 335°
2026-05-07 18:44 47.46398 8.54405 1382 ft 80 kts 335°
2026-05-07 18:44 47.46837 8.54103 1384 ft 51 kts 335°
2026-05-07 18:45 47.47013 8.54072 1383 ft 21 kts 60°
2026-05-07 18:45 47.46980 8.54262 1384 ft 17 kts 142°
2026-05-07 18:45 47.46969 8.54274 1382 ft 1 kts 142°
2026-05-07 18:45 47.46932 8.54315 1382 ft 10 kts 143°
2026-05-07 18:46 47.46842 8.54397 1383 ft 21 kts 137°
2026-05-07 18:46 47.46752 8.54574 1385 ft 21 kts 140°
2026-05-07 18:46 47.46616 8.54675 1396 ft 24 kts 155°
2026-05-07 18:46 47.46455 8.54787 1387 ft 27 kts 155°
2026-05-07 18:47 47.46283 8.54906 1387 ft 20 kts 155°
2026-05-07 18:47 47.46155 8.54993 1386 ft 21 kts 155°
2026-05-07 18:47 47.45981 8.55113 1398 ft 33 kts 155°
2026-05-07 18:47 47.45758 8.55266 1399 ft 36 kts 155°
2026-05-07 18:48 47.45535 8.55395 1403 ft 28 kts 153°
2026-05-07 18:48 47.45365 8.55516 1411 ft 23 kts 155°
2026-05-07 18:48 47.45280 8.55585 1406 ft 11 kts 128°
2026-05-07 18:48 47.45302 8.55640 1407 ft 7 kts
2026-05-07 18:49 47.45345 8.55646 1411 ft 5 kts
2026-05-07 18:49 47.45353 8.55647 1410 ft 0 kts